Time,TemperatureF,DewpointF,PressureIn,WindDirection,WindDirectionDegrees,WindSpeedMPH,WindSpeedGustMPH,Humidity,HourlyPrecipIn,Conditions,Clouds,dailyrainin,SoftwareType,DateUTC
2013-01-20 00:00:00,1.6,-3.9,30.30,NW,305,3.0,6.0,77,0.00,,,0.00,Wunderground v.1.15,2013-01-20 06:00:00,
2013-01-20 00:05:00,1.5,-4.0,30.31,WNW,292,3.0,6.0,77,0.00,,,0.00,Wunderground v.1.15,2013-01-20 06:05:00,
2013-01-20 00:11:00,1.5,-4.0,30.32,WNW,290,3.0,5.0,77,0.00,,,0.00,Wunderground v.1.15,2013-01-20 06:11:00,
2013-01-20 00:16:00,1.5,-4.0,30.32,WNW,301,5.0,6.0,77,0.00,,,0.00,Wunderground v.1.15,2013-01-20 06:16:00,
2013-01-20 00:22:00,1.4,-4.1,30.33,WNW,297,2.0,5.0,77,0.00,,,0.00,Wunderground v.1.15,2013-01-20 06:22:00,
2013-01-20 00:27:00,1.3,-4.2,30.33,West,271,6.0,6.0,77,0.00,,,0.00,Wunderground v.1.15,2013-01-20 06:27:00,
2013-01-20 00:32:00,1.2,-4.3,30.32,WNW,286,6.0,8.0,77,0.00,,,0.00,Wunderground v.1.15,2013-01-20 06:32:00,
2013-01-20 00:38:00,1.1,-4.4,30.32,NW,306,8.0,8.0,77,0.00,,,0.00,Wunderground v.1.15,2013-01-20 06:38:00,
2013-01-20 00:43:00,0.9,-4.6,30.32,NW,318,7.0,7.0,77,0.00,,,0.00,Wunderground v.1.15,2013-01-20 06:43:00,
2013-01-20 00:49:00,0.9,-4.6,30.32,WNW,292,9.0,9.0,77,0.00,,,0.00,Wunderground v.1.15,2013-01-20 06:49:00,
2013-01-20 00:55:00,0.8,-4.7,30.33,NW,311,11.0,13.0,77,0.00,,,0.00,Wunderground v.1.15,2013-01-20 06:55:00,
2013-01-20 01:00:00,0.8,-4.7,30.33,NW,324,3.0,7.0,77,0.00,,,0.00,Wunderground v.1.15,2013-01-20 07:00:00,
2013-01-20 01:05:00,0.6,-4.9,30.33,WNW,297,4.0,7.0,77,0.00,,,0.00,Wunderground v.1.15,2013-01-20 07:05:00,
2013-01-20 01:11:00,0.5,-4.7,30.33,WNW,286,10.0,12.0,78,0.00,,,0.00,Wunderground v.1.15,2013-01-20 07:11:00,
2013-01-20 01:17:00,0.4,-5.1,30.33,WNW,302,5.0,12.0,77,0.00,,,0.00,Wunderground v.1.15,2013-01-20 07:17:00,
2013-01-20 01:23:00,0.4,-5.1,30.33,NW,306,4.0,9.0,77,0.00,,,0.00,Wunderground v.1.15,2013-01-20 07:23:00,
2013-01-20 01:29:00,0.2,-5.0,30.33,WNW,300,2.0,9.0,78,0.00,,,0.00,Wunderground v.1.15,2013-01-20 07:29:00,
2013-01-20 01:34:00,0.1,-5.1,30.33,WNW,302,1.0,8.0,78,0.00,,,0.00,Wunderground v.1.15,2013-01-20 07:34:00,
2013-01-20 01:40:00,0.1,-5.1,30.33,WNW,299,3.0,4.0,78,0.00,,,0.00,Wunderground v.1.15,2013-01-20 07:40:00,
2013-01-20 01:45:00,0.1,-5.1,30.34,WNW,298,2.0,6.0,78,0.00,,,0.00,Wunderground v.1.15,2013-01-20 07:45:00,
2013-01-20 01:51:00,0.0,-5.2,30.34,NW,312,1.0,4.0,78,0.00,,,0.00,Wunderground v.1.15,2013-01-20 07:51:00,
2013-01-20 01:56:00,0.0,-5.2,30.35,NW,309,2.0,6.0,78,0.00,,,0.00,Wunderground v.1.15,2013-01-20 07:56:00,
2013-01-20 02:01:00,-0.1,-5.3,30.35,NW,304,3.0,4.0,78,0.00,,,0.00,Wunderground v.1.15,2013-01-20 08:01:00,
2013-01-20 02:06:00,-0.1,-5.3,30.36,WNW,303,6.0,7.0,78,0.00,,,0.00,Wunderground v.1.15,2013-01-20 08:06:00,
2013-01-20 02:11:00,-0.2,-5.4,30.36,WNW,302,6.0,6.0,78,0.00,,,0.00,Wunderground v.1.15,2013-01-20 08:11:00,
2013-01-20 02:16:00,-0.2,-5.4,30.37,WNW,301,2.0,9.0,78,0.00,,,0.00,Wunderground v.1.15,2013-01-20 08:16:00,
2013-01-20 02:21:00,-0.2,-5.4,30.37,WNW,300,1.0,4.0,78,0.00,,,0.00,Wunderground v.1.15,2013-01-20 08:21:00,
2013-01-20 02:26:00,-0.3,-5.5,30.38,WNW,284,4.0,10.0,78,0.00,,,0.00,Wunderground v.1.15,2013-01-20 08:26:00,
2013-01-20 02:31:00,-0.2,-5.4,30.38,WNW,286,4.0,7.0,78,0.00,,,0.00,Wunderground v.1.15,2013-01-20 08:31:00,
2013-01-20 02:36:00,-0.2,-5.4,30.38,West,279,4.0,8.0,78,0.00,,,0.00,Wunderground v.1.15,2013-01-20 08:36:00,
2013-01-20 02:42:00,-0.3,-5.5,30.38,NW,309,7.0,8.0,78,0.00,,,0.00,Wunderground v.1.15,2013-01-20 08:42:00,
2013-01-20 02:46:00,-0.3,-5.5,30.39,NW,304,6.0,10.0,78,0.00,,,0.00,Wunderground v.1.15,2013-01-20 08:46:00,
2013-01-20 02:52:00,-0.4,-5.9,30.38,NW,307,4.0,11.0,77,0.00,,,0.00,Wunderground v.1.15,2013-01-20 08:52:00,
2013-01-20 02:57:00,-0.4,-5.6,30.39,NW,316,7.0,11.0,78,0.00,,,0.00,Wunderground v.1.15,2013-01-20 08:57:00,
2013-01-20 03:02:00,-0.4,-5.6,30.39,WNW,298,2.0,6.0,78,0.00,,,0.00,Wunderground v.1.15,2013-01-20 09:02:00,
2013-01-20 03:07:00,-0.4,-5.6,30.39,WNW,294,2.0,10.0,78,0.00,,,0.00,Wunderground v.1.15,2013-01-20 09:07:00,
2013-01-20 03:12:00,-0.5,-6.0,30.39,NW,313,5.0,8.0,77,0.00,,,0.00,Wunderground v.1.15,2013-01-20 09:12:00,
2013-01-20 03:17:00,-0.4,-5.6,30.40,WNW,294,6.0,8.0,78,0.00,,,0.00,Wunderground v.1.15,2013-01-20 09:17:00,
2013-01-20 03:22:00,-0.5,-5.7,30.39,WNW,292,4.0,8.0,78,0.00,,,0.00,Wunderground v.1.15,2013-01-20 09:22:00,
2013-01-20 03:27:00,-0.5,-5.7,30.39,NW,312,4.0,10.0,78,0.00,,,0.00,Wunderground v.1.15,2013-01-20 09:27:00,
2013-01-20 03:32:00,-0.5,-6.0,30.39,NW,320,0.0,16.0,77,0.00,,,0.00,Wunderground v.1.15,2013-01-20 09:32:00,
2013-01-20 03:37:00,-0.5,-5.7,30.39,NW,313,5.0,16.0,78,0.00,,,0.00,Wunderground v.1.15,2013-01-20 09:37:00,
2013-01-20 03:43:00,-0.6,-6.1,30.39,WNW,302,7.0,9.0,77,0.00,,,0.00,Wunderground v.1.15,2013-01-20 09:43:00,
2013-01-20 03:48:00,-0.7,-6.2,30.40,NW,309,3.0,9.0,77,0.00,,,0.00,Wunderground v.1.15,2013-01-20 09:48:00,
2013-01-20 03:53:00,-0.7,-5.9,30.40,WNW,292,5.0,7.0,78,0.00,,,0.00,Wunderground v.1.15,2013-01-20 09:53:00,
2013-01-20 03:58:00,-0.7,-5.9,30.40,WNW,296,3.0,7.0,78,0.00,,,0.00,Wunderground v.1.15,2013-01-20 09:58:00,
2013-01-20 04:03:00,-0.8,-6.0,30.40,West,274,2.0,5.0,78,0.00,,,0.00,Wunderground v.1.15,2013-01-20 10:03:00,
2013-01-20 04:08:00,-0.8,-6.0,30.40,WNW,285,5.0,5.0,78,0.00,,,0.00,Wunderground v.1.15,2013-01-20 10:08:00,
2013-01-20 04:13:00,-0.8,-6.0,30.40,WNW,294,4.0,4.0,78,0.00,,,0.00,Wunderground v.1.15,2013-01-20 10:13:00,
2013-01-20 04:18:00,-0.8,-6.0,30.40,West,279,5.0,7.0,78,0.00,,,0.00,Wunderground v.1.15,2013-01-20 10:18:00,
2013-01-20 04:24:00,-0.8,-6.0,30.40,WNW,292,5.0,5.0,78,0.00,,,0.00,Wunderground v.1.15,2013-01-20 10:24:00,
2013-01-20 04:29:00,-0.8,-6.0,30.39,WNW,292,2.0,5.0,78,0.00,,,0.00,Wunderground v.1.15,2013-01-20 10:29:00,
2013-01-20 04:34:00,-0.9,-6.1,30.40,WNW,288,1.0,6.0,78,0.00,,,0.00,Wunderground v.1.15,2013-01-20 10:34:00,
2013-01-20 04:39:00,-1.0,-6.2,30.40,WNW,290,2.0,6.0,78,0.00,,,0.00,Wunderground v.1.15,2013-01-20 10:39:00,
2013-01-20 04:44:00,-0.9,-6.1,30.40,WNW,292,3.0,5.0,78,0.00,,,0.00,Wunderground v.1.15,2013-01-20 10:44:00,
2013-01-20 04:49:00,-1.0,-6.2,30.41,WNW,303,4.0,6.0,78,0.00,,,0.00,Wunderground v.1.15,2013-01-20 10:49:00,
2013-01-20 04:54:00,-1.0,-6.2,30.41,WNW,300,1.0,5.0,78,0.00,,,0.00,Wunderground v.1.15,2013-01-20 10:54:00,
2013-01-20 04:59:00,-1.0,-6.2,30.41,NW,305,2.0,6.0,78,0.00,,,0.00,Wunderground v.1.15,2013-01-20 10:59:00,
2013-01-20 05:04:00,-1.0,-6.2,30.41,NW,326,2.0,5.0,78,0.00,,,0.00,Wunderground v.1.15,2013-01-20 11:04:00,
2013-01-20 05:09:00,-1.0,-6.2,30.41,NW,325,2.0,5.0,78,0.00,,,0.00,Wunderground v.1.15,2013-01-20 11:09:00,
2013-01-20 05:14:00,-1.0,-5.9,30.40,NW,325,0.0,4.0,79,0.00,,,0.00,Wunderground v.1.15,2013-01-20 11:14:00,
2013-01-20 05:19:00,-1.0,-6.2,30.40,NW,304,1.0,5.0,78,0.00,,,0.00,Wunderground v.1.15,2013-01-20 11:19:00,
2013-01-20 05:25:00,-1.0,-5.9,30.40,WNW,288,3.0,7.0,79,0.00,,,0.00,Wunderground v.1.15,2013-01-20 11:25:00,
2013-01-20 05:30:00,-1.0,-6.2,30.40,WNW,298,3.0,3.0,78,0.00,,,0.00,Wunderground v.1.15,2013-01-20 11:30:00,
2013-01-20 05:35:00,-1.0,-5.9,30.40,North,355,1.0,5.0,79,0.00,,,0.00,Wunderground v.1.15,2013-01-20 11:35:00,
2013-01-20 05:40:00,-1.0,-6.2,30.40,WNW,298,0.0,2.0,78,0.00,,,0.00,Wunderground v.1.15,2013-01-20 11:40:00,
2013-01-20 05:45:00,-1.0,-6.2,30.39,WNW,298,2.0,5.0,78,0.00,,,0.00,Wunderground v.1.15,2013-01-20 11:45:00,
2013-01-20 05:50:00,-1.0,-6.2,30.40,North,355,2.0,4.0,78,0.00,,,0.00,Wunderground v.1.15,2013-01-20 11:50:00,
2013-01-20 05:55:00,-1.1,-6.3,30.40,NNW,341,0.0,5.0,78,0.00,,,0.00,Wunderground v.1.15,2013-01-20 11:55:00,
2013-01-20 06:00:00,-1.1,-6.3,30.41,NNW,340,0.0,2.0,78,0.00,,,0.00,Wunderground v.1.15,2013-01-20 12:00:00,
2013-01-20 06:06:00,-1.1,-6.0,30.41,NNW,329,3.0,5.0,79,0.00,,,0.00,Wunderground v.1.15,2013-01-20 12:06:00,
2013-01-20 06:11:00,-1.1,-6.0,30.41,NW,310,1.0,5.0,79,0.00,,,0.00,Wunderground v.1.15,2013-01-20 12:11:00,
2013-01-20 06:16:00,-1.1,-6.3,30.41,NW,310,0.0,5.0,78,0.00,,,0.00,Wunderground v.1.15,2013-01-20 12:16:00,
2013-01-20 06:21:00,-1.1,-6.0,30.41,NW,311,0.0,4.0,79,0.00,,,0.00,Wunderground v.1.15,2013-01-20 12:21:00,
2013-01-20 06:26:00,-1.0,-5.9,30.40,NW,311,3.0,5.0,79,0.00,,,0.00,Wunderground v.1.15,2013-01-20 12:26:00,
2013-01-20 06:31:00,-1.0,-5.9,30.41,NW,311,3.0,3.0,79,0.00,,,0.00,Wunderground v.1.15,2013-01-20 12:31:00,
2013-01-20 06:37:00,-0.9,-5.8,30.41,NW,304,2.0,3.0,79,0.00,,,0.00,Wunderground v.1.15,2013-01-20 12:37:00,
2013-01-20 06:42:00,-0.9,-5.8,30.41,NW,306,3.0,4.0,79,0.00,,,0.00,Wunderground v.1.15,2013-01-20 12:42:00,
2013-01-20 06:47:00,-0.9,-6.1,30.41,NW,306,2.0,5.0,78,0.00,,,0.00,Wunderground v.1.15,2013-01-20 12:47:00,
2013-01-20 06:52:00,-1.0,-6.2,30.41,NW,306,0.0,2.0,78,0.00,,,0.00,Wunderground v.1.15,2013-01-20 12:52:00,
2013-01-20 06:57:00,-1.0,-5.9,30.42,NW,306,2.0,2.0,79,0.00,,,0.00,Wunderground v.1.15,2013-01-20 12:57:00,
2013-01-20 07:02:00,-1.0,-5.9,30.42,WNW,297,3.0,4.0,79,0.00,,,0.00,Wunderground v.1.15,2013-01-20 13:02:00,
2013-01-20 07:07:00,-0.9,-5.8,30.42,WNW,297,2.0,4.0,79,0.00,,,0.00,Wunderground v.1.15,2013-01-20 13:07:00,
2013-01-20 07:12:00,-0.9,-5.8,30.42,NW,306,0.0,5.0,79,0.00,,,0.00,Wunderground v.1.15,2013-01-20 13:12:00,
2013-01-20 07:18:00,-0.9,-6.1,30.42,NW,306,0.0,5.0,78,0.00,,,0.00,Wunderground v.1.15,2013-01-20 13:18:00,
2013-01-20 07:23:00,-0.9,-6.1,30.42,NW,306,0.0,3.0,78,0.00,,,0.00,Wunderground v.1.15,2013-01-20 13:23:00,
2013-01-20 07:28:00,-1.0,-6.2,30.42,NW,306,2.0,3.0,78,0.00,,,0.00,Wunderground v.1.15,2013-01-20 13:28:00,
2013-01-20 07:33:00,-1.2,-6.4,30.42,NW,306,0.0,4.0,78,0.00,,,0.00,Wunderground v.1.15,2013-01-20 13:33:00,
2013-01-20 07:38:00,-1.3,-6.5,30.41,NW,306,0.0,4.0,78,0.00,,,0.00,Wunderground v.1.15,2013-01-20 13:38:00,
2013-01-20 07:43:00,-1.5,-6.7,30.41,NW,306,0.0,0.0,78,0.00,,,0.00,Wunderground v.1.15,2013-01-20 13:43:00,
2013-01-20 07:48:00,-1.6,-6.5,30.42,NW,306,0.0,0.0,79,0.00,,,0.00,Wunderground v.1.15,2013-01-20 13:48:00,
2013-01-20 07:53:00,-1.7,-6.6,30.42,NW,306,0.0,0.0,79,0.00,,,0.00,Wunderground v.1.15,2013-01-20 13:53:00,
2013-01-20 07:58:00,-1.8,-6.7,30.43,NW,306,0.0,0.0,79,0.00,,,0.00,Wunderground v.1.15,2013-01-20 13:58:00,
2013-01-20 08:04:00,-1.7,-6.4,30.44,NW,306,0.0,0.0,80,0.00,,,0.00,Wunderground v.1.15,2013-01-20 14:04:00,
2013-01-20 08:09:00,-1.6,-6.3,30.44,NW,306,0.0,2.0,80,0.00,,,0.00,Wunderground v.1.15,2013-01-20 14:09:00,
2013-01-20 08:14:00,-1.5,-6.2,30.44,NW,306,0.0,3.0,80,0.00,,,0.00,Wunderground v.1.15,2013-01-20 14:14:00,
2013-01-20 08:19:00,-1.3,-6.0,30.44,NW,306,3.0,3.0,80,0.00,,,0.00,Wunderground v.1.15,2013-01-20 14:19:00,
2013-01-20 08:24:00,-1.1,-5.8,30.44,NW,306,0.0,5.0,80,0.00,,,0.00,Wunderground v.1.15,2013-01-20 14:24:00,
2013-01-20 08:29:00,-1.0,-5.7,30.44,NW,306,0.0,5.0,80,0.00,,,0.00,Wunderground v.1.15,2013-01-20 14:29:00,
2013-01-20 08:35:00,-0.9,-5.6,30.44,NW,306,2.0,3.0,80,0.00,,,0.00,Wunderground v.1.15,2013-01-20 14:35:00,
2013-01-20 08:40:00,-0.7,-5.4,30.44,NW,306,3.0,3.0,80,0.00,,,0.00,Wunderground v.1.15,2013-01-20 14:40:00,
2013-01-20 08:45:00,-0.5,-5.5,30.45,NW,308,5.0,5.0,79,0.00,,,0.00,Wunderground v.1.15,2013-01-20 14:45:00,
2013-01-20 08:50:00,-0.2,-5.2,30.45,NW,306,1.0,2.0,79,0.00,,,0.00,Wunderground v.1.15,2013-01-20 14:50:00,
2013-01-20 08:55:00,0.0,-5.2,30.46,NNW,328,5.0,7.0,78,0.00,,,0.00,Wunderground v.1.15,2013-01-20 14:55:00,
2013-01-20 09:00:00,0.0,-5.2,30.46,NW,317,2.0,5.0,78,0.00,,,0.00,Wunderground v.1.15,2013-01-20 15:00:00,
2013-01-20 09:05:00,0.2,-5.3,30.46,NW,307,2.0,9.0,77,0.00,,,0.00,Wunderground v.1.15,2013-01-20 15:05:00,
2013-01-20 09:10:00,0.4,-5.1,30.47,West,273,3.0,4.0,77,0.00,,,0.00,Wunderground v.1.15,2013-01-20 15:10:00,
2013-01-20 09:15:00,0.6,-4.9,30.47,WNW,300,5.0,5.0,77,0.00,,,0.00,Wunderground v.1.15,2013-01-20 15:15:00,
2013-01-20 09:20:00,0.9,-4.9,30.47,NW,307,3.0,6.0,76,0.00,,,0.00,Wunderground v.1.15,2013-01-20 15:20:00,
2013-01-20 09:26:00,1.0,-5.1,30.47,WNW,300,5.0,10.0,75,0.00,,,0.00,Wunderground v.1.15,2013-01-20 15:26:00,
2013-01-20 09:31:00,1.4,-4.7,30.47,WNW,301,3.0,6.0,75,0.00,,,0.00,Wunderground v.1.15,2013-01-20 15:31:00,
2013-01-20 09:36:00,1.7,-4.4,30.48,NW,324,2.0,6.0,75,0.00,,,0.00,Wunderground v.1.15,2013-01-20 15:36:00,
2013-01-20 09:41:00,2.0,-4.1,30.47,West,263,4.0,7.0,75,0.00,,,0.00,Wunderground v.1.15,2013-01-20 15:41:00,
2013-01-20 09:46:00,1.8,-4.9,30.48,WNW,302,4.0,8.0,73,0.00,,,0.00,Wunderground v.1.15,2013-01-20 15:46:00,
2013-01-20 09:51:00,2.1,-4.3,30.48,NW,325,7.0,7.0,74,0.00,,,0.00,Wunderground v.1.15,2013-01-20 15:51:00,
2013-01-20 09:56:00,2.3,-4.4,30.48,WNW,301,4.0,7.0,73,0.00,,,0.00,Wunderground v.1.15,2013-01-20 15:56:00,
2013-01-20 10:01:00,2.4,-4.3,30.48,WNW,302,3.0,7.0,73,0.00,,,0.00,Wunderground v.1.15,2013-01-20 16:01:00,
2013-01-20 10:06:00,2.7,-4.0,30.49,WNW,300,6.0,9.0,73,0.00,,,0.00,Wunderground v.1.15,2013-01-20 16:06:00,
2013-01-20 10:12:00,2.9,-4.1,30.49,WNW,290,4.0,9.0,72,0.00,,,0.00,Wunderground v.1.15,2013-01-20 16:12:00,
2013-01-20 10:17:00,3.0,-4.0,30.50,NW,323,1.0,10.0,72,0.00,,,0.00,Wunderground v.1.15,2013-01-20 16:17:00,
2013-01-20 10:22:00,3.2,-4.1,30.50,WNW,301,5.0,8.0,71,0.00,,,0.00,Wunderground v.1.15,2013-01-20 16:22:00,
2013-01-20 10:27:00,3.6,-3.7,30.50,NW,309,7.0,12.0,71,0.00,,,0.00,Wunderground v.1.15,2013-01-20 16:27:00,
2013-01-20 10:32:00,3.8,-3.8,30.49,NW,313,3.0,9.0,70,0.00,,,0.00,Wunderground v.1.15,2013-01-20 16:32:00,
2013-01-20 10:37:00,3.9,-3.7,30.49,West,273,5.0,9.0,70,0.00,,,0.00,Wunderground v.1.15,2013-01-20 16:37:00,
2013-01-20 10:42:00,4.1,-3.8,30.49,WNW,287,2.0,7.0,69,0.00,,,0.00,Wunderground v.1.15,2013-01-20 16:42:00,
2013-01-20 10:47:00,4.4,-3.8,30.49,WSW,257,6.0,7.0,68,0.00,,,0.00,Wunderground v.1.15,2013-01-20 16:47:00,
2013-01-20 10:52:00,3.9,-4.6,30.49,NW,313,5.0,8.0,67,0.00,,,0.00,Wunderground v.1.15,2013-01-20 16:52:00,
2013-01-20 10:57:00,3.9,-4.6,30.49,West,264,3.0,9.0,67,0.00,,,0.00,Wunderground v.1.15,2013-01-20 16:57:00,
2013-01-20 11:03:00,4.1,-4.4,30.49,WNW,302,4.0,8.0,67,0.00,,,0.00,Wunderground v.1.15,2013-01-20 17:03:00,
2013-01-20 11:08:00,4.2,-4.0,30.49,West,279,1.0,8.0,68,0.00,,,0.00,Wunderground v.1.15,2013-01-20 17:08:00,
2013-01-20 11:13:00,4.1,-4.1,30.48,WNW,300,3.0,6.0,68,0.00,,,0.00,Wunderground v.1.15,2013-01-20 17:13:00,
2013-01-20 11:18:00,4.1,-4.4,30.48,WSW,257,2.0,9.0,67,0.00,,,0.00,Wunderground v.1.15,2013-01-20 17:18:00,
2013-01-20 11:23:00,4.0,-4.2,30.48,West,281,6.0,6.0,68,0.00,,,0.00,Wunderground v.1.15,2013-01-20 17:23:00,
2013-01-20 11:28:00,4.4,-3.8,30.48,West,264,5.0,6.0,68,0.00,,,0.00,Wunderground v.1.15,2013-01-20 17:28:00,
2013-01-20 11:33:00,4.6,-3.6,30.48,WNW,302,3.0,6.0,68,0.00,,,0.00,Wunderground v.1.15,2013-01-20 17:33:00,
2013-01-20 11:38:00,5.0,-3.6,30.47,West,261,5.0,8.0,67,0.00,,,0.00,Wunderground v.1.15,2013-01-20 17:38:00,
2013-01-20 11:43:00,4.7,-4.2,30.48,West,277,5.0,8.0,66,0.00,,,0.00,Wunderground v.1.15,2013-01-20 17:43:00,
2013-01-20 11:48:00,4.8,-4.1,30.47,West,268,8.0,8.0,66,0.00,,,0.00,Wunderground v.1.15,2013-01-20 17:48:00,
2013-01-20 11:54:00,4.8,-4.1,30.47,WSW,254,0.0,7.0,66,0.00,,,0.00,Wunderground v.1.15,2013-01-20 17:54:00,
2013-01-20 11:59:00,5.4,-3.5,30.47,NW,315,5.0,10.0,66,0.00,,,0.00,Wunderground v.1.15,2013-01-20 17:59:00,
2013-01-20 12:04:00,6.0,-2.9,30.47,NW,311,2.0,9.0,66,0.00,,,0.00,Wunderground v.1.15,2013-01-20 18:04:00,
2013-01-20 12:09:00,6.7,-2.6,30.47,WNW,297,5.0,9.0,65,0.00,,,0.00,Wunderground v.1.15,2013-01-20 18:09:00,
2013-01-20 12:14:00,7.0,-2.6,30.46,West,271,4.0,6.0,64,0.00,,,0.00,Wunderground v.1.15,2013-01-20 18:14:00,
2013-01-20 12:19:00,6.3,-3.6,30.46,West,270,5.0,8.0,63,0.00,,,0.00,Wunderground v.1.15,2013-01-20 18:19:00,
2013-01-20 12:24:00,6.6,-3.0,30.46,WNW,300,3.0,7.0,64,0.00,,,0.00,Wunderground v.1.15,2013-01-20 18:24:00,
2013-01-20 12:29:00,7.9,-1.4,30.45,NW,308,3.0,9.0,65,0.00,,,0.00,Wunderground v.1.15,2013-01-20 18:29:00,
2013-01-20 12:35:00,8.0,-1.7,30.45,WNW,288,3.0,11.0,64,0.00,,,0.00,Wunderground v.1.15,2013-01-20 18:35:00,
2013-01-20 12:40:00,7.7,-2.3,30.45,NW,304,2.0,5.0,63,0.00,,,0.00,Wunderground v.1.15,2013-01-20 18:40:00,
2013-01-20 12:45:00,8.2,-1.8,30.45,NW,304,6.0,9.0,63,0.00,,,0.00,Wunderground v.1.15,2013-01-20 18:45:00,
2013-01-20 12:50:00,9.0,-1.1,30.45,NW,317,5.0,5.0,63,0.00,,,0.00,Wunderground v.1.15,2013-01-20 18:50:00,
2013-01-20 12:55:00,9.4,-0.7,30.45,WNW,294,4.0,9.0,63,0.00,,,0.00,Wunderground v.1.15,2013-01-20 18:55:00,
2013-01-20 13:00:00,9.4,-0.7,30.44,West,269,5.0,7.0,63,0.00,,,0.00,Wunderground v.1.15,2013-01-20 19:00:00,
2013-01-20 13:05:00,7.8,-2.5,30.44,West,273,8.0,12.0,62,0.00,,,0.00,Wunderground v.1.15,2013-01-20 19:05:00,
2013-01-20 13:11:00,7.6,-1.7,30.45,West,269,7.0,10.0,65,0.00,,,0.00,Wunderground v.1.15,2013-01-20 19:11:00,
2013-01-20 13:16:00,7.7,-1.3,30.44,WNW,298,4.0,10.0,66,0.00,,,0.00,Wunderground v.1.15,2013-01-20 19:16:00,
2013-01-20 13:21:00,8.4,-0.6,30.43,West,275,4.0,9.0,66,0.00,,,0.00,Wunderground v.1.15,2013-01-20 19:21:00,
2013-01-20 13:26:00,7.6,-2.1,30.43,WNW,296,5.0,13.0,64,0.00,,,0.00,Wunderground v.1.15,2013-01-20 19:26:00,
2013-01-20 13:31:00,7.9,-1.4,30.42,WSW,258,3.0,6.0,65,0.00,,,0.00,Wunderground v.1.15,2013-01-20 19:31:00,
2013-01-20 13:36:00,7.4,-1.9,30.42,WSW,250,9.0,10.0,65,0.00,,,0.00,Wunderground v.1.15,2013-01-20 19:36:00,
2013-01-20 13:41:00,7.0,-1.7,30.42,WSW,253,11.0,12.0,67,0.00,,,0.00,Wunderground v.1.15,2013-01-20 19:41:00,
2013-01-20 13:46:00,7.0,-1.0,30.42,West,259,8.0,12.0,69,0.00,,,0.00,Wunderground v.1.15,2013-01-20 19:46:00,
2013-01-20 13:51:00,7.0,-1.0,30.42,WSW,257,6.0,7.0,69,0.00,,,0.00,Wunderground v.1.15,2013-01-20 19:51:00,
2013-01-20 13:56:00,7.6,-0.5,30.42,West,274,2.0,7.0,69,0.00,,,0.00,Wunderground v.1.15,2013-01-20 19:56:00,
2013-01-20 14:02:00,7.7,-0.7,30.42,WSW,249,7.0,7.0,68,0.00,,,0.00,Wunderground v.1.15,2013-01-20 20:02:00,
2013-01-20 14:07:00,7.1,-1.2,30.42,NW,304,5.0,8.0,68,0.00,,,0.00,Wunderground v.1.15,2013-01-20 20:07:00,
2013-01-20 14:12:00,7.0,-1.3,30.42,WNW,297,5.0,8.0,68,0.00,,,0.00,Wunderground v.1.15,2013-01-20 20:12:00,
2013-01-20 14:17:00,7.4,-0.3,30.41,West,269,5.0,8.0,70,0.00,,,0.00,Wunderground v.1.15,2013-01-20 20:17:00,
2013-01-20 14:22:00,7.4,-0.3,30.41,West,262,7.0,8.0,70,0.00,,,0.00,Wunderground v.1.15,2013-01-20 20:22:00,
2013-01-20 14:27:00,7.1,-0.9,30.41,West,278,4.0,11.0,69,0.00,,,0.00,Wunderground v.1.15,2013-01-20 20:27:00,
2013-01-20 14:32:00,7.3,-0.1,30.42,WNW,282,7.0,8.0,71,0.00,,,0.00,Wunderground v.1.15,2013-01-20 20:32:00,
2013-01-20 14:37:00,7.2,-0.5,30.41,West,271,5.0,11.0,70,0.00,,,0.00,Wunderground v.1.15,2013-01-20 20:37:00,
2013-01-20 14:42:00,7.2,-0.2,30.41,West,259,4.0,7.0,71,0.00,,,0.00,Wunderground v.1.15,2013-01-20 20:42:00,
2013-01-20 14:48:00,7.3,0.2,30.41,WNW,288,1.0,11.0,72,0.00,,,0.00,Wunderground v.1.15,2013-01-20 20:48:00,
2013-01-20 14:53:00,7.4,0.3,30.41,WNW,282,2.0,11.0,72,0.00,,,0.00,Wunderground v.1.15,2013-01-20 20:53:00,
2013-01-20 14:58:00,7.3,0.2,30.41,West,277,5.0,12.0,72,0.00,,,0.00,Wunderground v.1.15,2013-01-20 20:58:00,
2013-01-20 15:03:00,7.0,0.2,30.41,West,269,9.0,11.0,73,0.00,,,0.00,Wunderground v.1.15,2013-01-20 21:03:00,
2013-01-20 15:08:00,6.9,0.4,30.41,NW,315,3.0,11.0,74,0.00,,,0.00,Wunderground v.1.15,2013-01-20 21:08:00,
2013-01-20 15:13:00,7.1,0.8,30.41,WNW,298,6.0,8.0,75,0.00,,,0.00,Wunderground v.1.15,2013-01-20 21:13:00,
2013-01-20 15:19:00,7.1,0.6,30.41,NW,316,9.0,9.0,74,0.00,,,0.00,Wunderground v.1.15,2013-01-20 21:19:00,
2013-01-20 15:24:00,7.3,1.0,30.42,NW,313,10.0,10.0,75,0.00,,,0.00,Wunderground v.1.15,2013-01-20 21:24:00,
2013-01-20 15:29:00,7.2,0.4,30.42,West,265,6.0,10.0,73,0.00,,,0.00,Wunderground v.1.15,2013-01-20 21:29:00,
2013-01-20 15:34:00,7.3,0.2,30.42,NW,319,12.0,14.0,72,0.00,,,0.00,Wunderground v.1.15,2013-01-20 21:34:00,
2013-01-20 15:39:00,7.4,0.0,30.42,WNW,301,2.0,14.0,71,0.00,,,0.00,Wunderground v.1.15,2013-01-20 21:39:00,
2013-01-20 15:45:00,7.2,-0.5,30.42,West,273,3.0,7.0,70,0.00,,,0.00,Wunderground v.1.15,2013-01-20 21:45:00,
2013-01-20 15:50:00,7.2,-0.2,30.42,WNW,300,8.0,8.0,71,0.00,,,0.00,Wunderground v.1.15,2013-01-20 21:50:00,
2013-01-20 15:55:00,7.0,-0.4,30.41,NW,313,9.0,11.0,71,0.00,,,0.00,Wunderground v.1.15,2013-01-20 21:55:00,
2013-01-20 16:00:00,6.9,-0.2,30.41,West,279,7.0,7.0,72,0.00,,,0.00,Wunderground v.1.15,2013-01-20 22:00:00,
2013-01-20 16:06:00,6.8,-0.3,30.41,WNW,292,2.0,9.0,72,0.00,,,0.00,Wunderground v.1.15,2013-01-20 22:06:00,
2013-01-20 16:11:00,6.7,-0.4,30.40,West,277,1.0,4.0,72,0.00,,,0.00,Wunderground v.1.15,2013-01-20 22:11:00,
2013-01-20 16:16:00,6.7,-0.1,30.40,NW,307,2.0,7.0,73,0.00,,,0.00,Wunderground v.1.15,2013-01-20 22:16:00,
2013-01-20 16:21:00,6.5,-0.6,30.40,NW,317,5.0,7.0,72,0.00,,,0.00,Wunderground v.1.15,2013-01-20 22:21:00,
2013-01-20 16:26:00,6.7,-0.4,30.40,WNW,302,4.0,9.0,72,0.00,,,0.00,Wunderground v.1.15,2013-01-20 22:26:00,
2013-01-20 16:31:00,6.6,-0.8,30.40,West,269,11.0,11.0,71,0.00,,,0.00,Wunderground v.1.15,2013-01-20 22:31:00,
2013-01-20 16:36:00,6.3,-0.8,30.40,WNW,288,4.0,11.0,72,0.00,,,0.00,Wunderground v.1.15,2013-01-20 22:36:00,
2013-01-20 16:42:00,6.2,-0.6,30.40,WNW,296,4.0,5.0,73,0.00,,,0.00,Wunderground v.1.15,2013-01-20 22:42:00,
2013-01-20 16:47:00,6.0,-0.5,30.40,WNW,295,4.0,6.0,74,0.00,,,0.00,Wunderground v.1.15,2013-01-20 22:47:00,
2013-01-20 16:52:00,5.9,-0.3,30.40,NW,306,3.0,7.0,75,0.00,,,0.00,Wunderground v.1.15,2013-01-20 22:52:00,
2013-01-20 16:57:00,5.7,-0.5,30.40,West,259,4.0,7.0,75,0.00,,,0.00,Wunderground v.1.15,2013-01-20 22:57:00,
2013-01-20 17:02:00,5.6,-0.6,30.39,West,271,1.0,4.0,75,0.00,,,0.00,Wunderground v.1.15,2013-01-20 23:02:00,
2013-01-20 17:07:00,5.4,-0.8,30.39,West,271,1.0,4.0,75,0.00,,,0.00,Wunderground v.1.15,2013-01-20 23:07:00,
2013-01-20 17:12:00,5.2,-0.7,30.39,West,271,2.0,4.0,76,0.00,,,0.00,Wunderground v.1.15,2013-01-20 23:12:00,
2013-01-20 17:17:00,5.1,-0.8,30.39,West,271,1.0,4.0,76,0.00,,,0.00,Wunderground v.1.15,2013-01-20 23:17:00,
2013-01-20 17:23:00,4.9,-1.0,30.39,West,273,2.0,3.0,76,0.00,,,0.00,Wunderground v.1.15,2013-01-20 23:23:00,
2013-01-20 17:28:00,4.7,-0.9,30.39,West,272,2.0,3.0,77,0.00,,,0.00,Wunderground v.1.15,2013-01-20 23:28:00,
2013-01-20 17:33:00,4.7,-0.9,30.39,West,272,2.0,3.0,77,0.00,,,0.00,Wunderground v.1.15,2013-01-20 23:33:00,
2013-01-20 17:38:00,4.6,-1.0,30.39,West,272,0.0,3.0,77,0.00,,,0.00,Wunderground v.1.15,2013-01-20 23:38:00,
2013-01-20 17:43:00,4.5,-1.1,30.39,West,272,0.0,2.0,77,0.00,,,0.00,Wunderground v.1.15,2013-01-20 23:43:00,
2013-01-20 17:48:00,4.4,-0.9,30.38,WNW,286,4.0,5.0,78,0.00,,,0.00,Wunderground v.1.15,2013-01-20 23:48:00,
2013-01-20 17:53:00,4.5,-0.8,30.39,WNW,291,4.0,6.0,78,0.00,,,0.00,Wunderground v.1.15,2013-01-20 23:53:00,
2013-01-20 17:58:00,4.7,-0.7,30.38,West,259,8.0,8.0,78,0.00,,,0.00,Wunderground v.1.15,2013-01-20 23:58:00,
2013-01-20 18:03:00,5.0,-0.4,30.38,West,280,3.0,6.0,78,0.00,,,0.00,Wunderground v.1.15,2013-01-21 00:03:00,
2013-01-20 18:09:00,5.1,-0.5,30.38,West,268,2.0,8.0,77,0.00,,,0.00,Wunderground v.1.15,2013-01-21 00:09:00,
2013-01-20 18:14:00,5.1,-0.5,30.38,WNW,298,3.0,5.0,77,0.00,,,0.00,Wunderground v.1.15,2013-01-21 00:14:00,
2013-01-20 18:19:00,5.0,-0.4,30.38,NW,312,7.0,8.0,78,0.00,,,0.00,Wunderground v.1.15,2013-01-21 00:19:00,
2013-01-20 18:24:00,4.9,-0.5,30.38,West,270,4.0,7.0,78,0.00,,,0.00,Wunderground v.1.15,2013-01-21 00:24:00,
2013-01-20 18:29:00,4.7,-0.4,30.38,WNW,284,3.0,7.0,79,0.00,,,0.00,Wunderground v.1.15,2013-01-21 00:29:00,
2013-01-20 18:34:00,4.5,-0.8,30.37,WNW,285,2.0,4.0,78,0.00,,,0.00,Wunderground v.1.15,2013-01-21 00:34:00,
2013-01-20 18:39:00,4.4,-0.9,30.38,WNW,283,9.0,9.0,78,0.00,,,0.00,Wunderground v.1.15,2013-01-21 00:39:00,
2013-01-20 18:44:00,4.4,-1.5,30.38,WNW,296,5.0,9.0,76,0.00,,,0.00,Wunderground v.1.15,2013-01-21 00:44:00,
2013-01-20 18:49:00,4.4,-1.8,30.38,WNW,287,3.0,9.0,75,0.00,,,0.00,Wunderground v.1.15,2013-01-21 00:49:00,
2013-01-20 18:55:00,4.3,-1.9,30.38,WNW,292,5.0,9.0,75,0.00,,,0.00,Wunderground v.1.15,2013-01-21 00:55:00,
2013-01-20 19:00:00,4.1,-2.1,30.38,West,270,6.0,6.0,75,0.00,,,0.00,Wunderground v.1.15,2013-01-21 01:00:00,
2013-01-20 19:05:00,4.0,-2.4,30.38,WNW,284,5.0,9.0,74,0.00,,,0.00,Wunderground v.1.15,2013-01-21 01:05:00,
2013-01-20 19:10:00,3.8,-2.6,30.38,WNW,296,6.0,6.0,74,0.00,,,0.00,Wunderground v.1.15,2013-01-21 01:10:00,
2013-01-20 19:15:00,3.6,-3.1,30.38,NW,307,11.0,11.0,73,0.00,,,0.00,Wunderground v.1.15,2013-01-21 01:15:00,
2013-01-20 19:20:00,3.4,-3.3,30.38,WNW,298,7.0,7.0,73,0.00,,,0.00,Wunderground v.1.15,2013-01-21 01:20:00,
2013-01-20 19:25:00,3.3,-3.7,30.38,West,272,7.0,8.0,72,0.00,,,0.00,Wunderground v.1.15,2013-01-21 01:25:00,
2013-01-20 19:30:00,3.1,-3.9,30.38,WNW,293,3.0,6.0,72,0.00,,,0.00,Wunderground v.1.15,2013-01-21 01:30:00,
2013-01-20 19:35:00,2.9,-4.1,30.38,NW,309,8.0,10.0,72,0.00,,,0.00,Wunderground v.1.15,2013-01-21 01:35:00,
2013-01-20 19:40:00,2.8,-4.2,30.38,WNW,300,4.0,6.0,72,0.00,,,0.00,Wunderground v.1.15,2013-01-21 01:40:00,
2013-01-20 19:46:00,2.6,-4.4,30.38,WNW,298,5.0,10.0,72,0.00,,,0.00,Wunderground v.1.15,2013-01-21 01:46:00,
2013-01-20 19:51:00,2.4,-4.6,30.38,WNW,296,3.0,5.0,72,0.00,,,0.00,Wunderground v.1.15,2013-01-21 01:51:00,
2013-01-20 19:56:00,2.3,-4.7,30.38,WNW,302,5.0,5.0,72,0.00,,,0.00,Wunderground v.1.15,2013-01-21 01:56:00,
2013-01-20 20:01:00,2.2,-4.8,30.38,West,266,3.0,6.0,72,0.00,,,0.00,Wunderground v.1.15,2013-01-21 02:01:00,
2013-01-20 20:06:00,2.1,-4.9,30.37,West,278,5.0,11.0,72,0.00,,,0.00,Wunderground v.1.15,2013-01-21 02:06:00,
2013-01-20 20:11:00,2.0,-4.7,30.38,WNW,291,8.0,9.0,73,0.00,,,0.00,Wunderground v.1.15,2013-01-21 02:11:00,
2013-01-20 20:16:00,1.9,-4.8,30.38,WNW,286,4.0,10.0,73,0.00,,,0.00,Wunderground v.1.15,2013-01-21 02:16:00,
2013-01-20 20:22:00,1.7,-5.0,30.38,NW,305,4.0,7.0,73,0.00,,,0.00,Wunderground v.1.15,2013-01-21 02:22:00,
2013-01-20 20:27:00,1.5,-5.2,30.38,WNW,297,2.0,10.0,73,0.00,,,0.00,Wunderground v.1.15,2013-01-21 02:27:00,
2013-01-20 20:33:00,1.4,-5.3,30.38,WNW,301,3.0,5.0,73,0.00,,,0.00,Wunderground v.1.15,2013-01-21 02:33:00,
2013-01-20 20:38:00,1.2,-5.4,30.38,WNW,284,5.0,11.0,73,0.00,,,0.00,Wunderground v.1.15,2013-01-21 02:38:00,
2013-01-20 20:43:00,1.0,-5.4,30.37,WNW,300,5.0,11.0,74,0.00,,,0.00,Wunderground v.1.15,2013-01-21 02:43:00,
2013-01-20 20:48:00,0.9,-5.5,30.38,WNW,295,3.0,11.0,74,0.00,,,0.00,Wunderground v.1.15,2013-01-21 02:48:00,
2013-01-20 20:53:00,0.8,-5.3,30.37,WNW,295,6.0,8.0,75,0.00,,,0.00,Wunderground v.1.15,2013-01-21 02:53:00,
2013-01-20 20:58:00,0.6,-5.5,30.38,NW,306,2.0,8.0,75,0.00,,,0.00,Wunderground v.1.15,2013-01-21 02:58:00,
2013-01-20 21:03:00,0.5,-5.3,30.37,WNW,302,7.0,12.0,76,0.00,,,0.00,Wunderground v.1.15,2013-01-21 03:03:00,
2013-01-20 21:08:00,0.4,-5.4,30.37,NW,313,9.0,12.0,76,0.00,,,0.00,Wunderground v.1.15,2013-01-21 03:08:00,
2013-01-20 21:13:00,0.3,-5.5,30.38,NW,304,5.0,9.0,76,0.00,,,0.00,Wunderground v.1.15,2013-01-21 03:13:00,
2013-01-20 21:19:00,0.2,-5.3,30.38,NW,304,3.0,9.0,77,0.00,,,0.00,Wunderground v.1.15,2013-01-21 03:19:00,
2013-01-20 21:24:00,0.1,-5.7,30.37,WNW,297,3.0,11.0,76,0.00,,,0.00,Wunderground v.1.15,2013-01-21 03:24:00,
2013-01-20 21:29:00,0.0,-5.8,30.38,WNW,301,7.0,11.0,76,0.00,,,0.00,Wunderground v.1.15,2013-01-21 03:29:00,
2013-01-20 21:34:00,-0.1,-6.1,30.38,WNW,295,3.0,8.0,75,0.00,,,0.00,Wunderground v.1.15,2013-01-21 03:34:00,
2013-01-20 21:39:00,-0.3,-6.6,30.38,WNW,300,3.0,12.0,74,0.00,,,0.00,Wunderground v.1.15,2013-01-21 03:39:00,
2013-01-20 21:44:00,-0.5,-7.1,30.38,West,281,4.0,12.0,73,0.00,,,0.00,Wunderground v.1.15,2013-01-21 03:44:00,
2013-01-20 21:49:00,-0.7,-7.3,30.39,NW,308,8.0,13.0,73,0.00,,,0.00,Wunderground v.1.15,2013-01-21 03:49:00,
2013-01-20 21:55:00,-0.8,-7.7,30.39,NW,306,6.0,11.0,72,0.00,,,0.00,Wunderground v.1.15,2013-01-21 03:55:00,
2013-01-20 22:00:00,-0.9,-7.8,30.39,NW,313,5.0,7.0,72,0.00,,,0.00,Wunderground v.1.15,2013-01-21 04:00:00,
2013-01-20 22:05:00,-1.0,-7.9,30.39,NW,309,2.0,9.0,72,0.00,,,0.00,Wunderground v.1.15,2013-01-21 04:05:00,
2013-01-20 22:10:00,-1.1,-8.0,30.39,WNW,298,3.0,6.0,72,0.00,,,0.00,Wunderground v.1.15,2013-01-21 04:10:00,
2013-01-20 22:15:00,-1.2,-8.0,30.40,WNW,295,6.0,9.0,72,0.00,,,0.00,Wunderground v.1.15,2013-01-21 04:15:00,
2013-01-20 22:20:00,-1.3,-7.9,30.40,NNW,328,3.0,4.0,73,0.00,,,0.00,Wunderground v.1.15,2013-01-21 04:20:00,
2013-01-20 22:25:00,-1.3,-8.1,30.40,NNW,332,4.0,13.0,72,0.00,,,0.00,Wunderground v.1.15,2013-01-21 04:25:00,
2013-01-20 22:30:00,-1.4,-8.2,30.40,NW,323,5.0,9.0,72,0.00,,,0.00,Wunderground v.1.15,2013-01-21 04:30:00,
2013-01-20 22:36:00,-1.4,-8.2,30.40,NW,326,6.0,12.0,72,0.00,,,0.00,Wunderground v.1.15,2013-01-21 04:36:00,
2013-01-20 22:41:00,-1.5,-8.3,30.40,WNW,287,6.0,9.0,72,0.00,,,0.00,Wunderground v.1.15,2013-01-21 04:41:00,
2013-01-20 22:46:00,-1.6,-8.4,30.40,NW,313,4.0,10.0,72,0.00,,,0.00,Wunderground v.1.15,2013-01-21 04:46:00,
2013-01-20 22:51:00,-1.7,-8.3,30.40,NW,309,2.0,7.0,73,0.00,,,0.00,Wunderground v.1.15,2013-01-21 04:51:00,
2013-01-20 22:57:00,-1.8,-8.3,30.40,NW,321,8.0,13.0,73,0.00,,,0.00,Wunderground v.1.15,2013-01-21 04:57:00,
2013-01-20 23:03:00,-1.9,-8.4,30.40,WNW,300,5.0,8.0,73,0.00,,,0.00,Wunderground v.1.15,2013-01-21 05:03:00,
2013-01-20 23:04:00,-1.9,-8.7,30.40,WNW,299,6.0,8.0,72,0.00,,,0.00,Wunderground v.1.15,2013-01-21 05:04:00,
2013-01-20 23:06:00,-2.0,-8.8,30.40,NW,312,4.0,11.0,72,0.00,,,0.00,Wunderground v.1.15,2013-01-21 05:06:00,
2013-01-20 23:11:00,-2.0,-8.5,30.40,WNW,292,15.0,15.0,73,0.00,,,0.00,Wunderground v.1.15,2013-01-21 05:11:00,
2013-01-20 23:17:00,-2.1,-8.6,30.40,NW,309,1.0,15.0,73,0.00,,,0.00,Wunderground v.1.15,2013-01-21 05:17:00,
2013-01-20 23:22:00,-2.2,-8.7,30.40,WNW,294,5.0,7.0,73,0.00,,,0.00,Wunderground v.1.15,2013-01-21 05:22:00,
2013-01-20 23:27:00,-2.2,-8.7,30.40,WNW,293,7.0,8.0,73,0.00,,,0.00,Wunderground v.1.15,2013-01-21 05:27:00,
2013-01-20 23:32:00,-2.2,-8.5,30.40,WNW,287,2.0,5.0,74,0.00,,,0.00,Wunderground v.1.15,2013-01-21 05:32:00,
2013-01-20 23:38:00,-2.3,-8.6,30.40,WNW,288,7.0,8.0,74,0.00,,,0.00,Wunderground v.1.15,2013-01-21 05:38:00,
2013-01-20 23:43:00,-2.4,-8.9,30.40,WNW,301,5.0,10.0,73,0.00,,,0.00,Wunderground v.1.15,2013-01-21 05:43:00,
2013-01-20 23:48:00,-2.5,-9.0,30.40,West,277,6.0,13.0,73,0.00,,,0.00,Wunderground v.1.15,2013-01-21 05:48:00,
2013-01-20 23:53:00,-2.7,-9.2,30.40,West,279,9.0,12.0,73,0.00,,,0.00,Wunderground v.1.15,2013-01-21 05:53:00,
2013-01-20 23:58:00,-2.8,-9.3,30.39,NW,311,5.0,12.0,73,0.00,,,0.00,Wunderground v.1.15,2013-01-21 05:58:00,